MAS2274 WMKN-WMKK

Flight info

Callsign MAS2274
Flight time 0h 45m
Altitude 26000
Route LASOB1B LASOB Y346 PULIP PULIP3J
Aircraft A333/H-SDE3GHIJ2J3J5M1RVWXY/LB2D1

Departure

Time 2026-04-17 07:51
Airport Sultan Mahmud Airport (WMKN)

Arrival

Time 2026-04-17 08:37
Airport Kuala Lumpur International Airport (WMKK)
Time Latitude Longitude Altitude Speed Heading
2026-04-17 07:34 5.37958 103.10438 29 ft 0 kts 135°
2026-04-17 07:41 5.37964 103.10432 28 ft 2 kts 136°
2026-04-17 07:42 5.37973 103.10424 29 ft 2 kts 139°
2026-04-17 07:42 5.37986 103.10413 26 ft 2 kts 143°
2026-04-17 07:42 5.37999 103.10404 27 ft 2 kts 153°
2026-04-17 07:42 5.38015 103.10398 27 ft 2 kts 175°
2026-04-17 07:43 5.38031 103.10400 26 ft 2 kts 213°
2026-04-17 07:43 5.38040 103.10407 25 ft 1 kts 226°
2026-04-17 07:43 5.38038 103.10402 26 ft 2 kts 238°
2026-04-17 07:44 5.38025 103.10380 28 ft 6 kts 242°
2026-04-17 07:44 5.38006 103.10333 29 ft 7 kts 253°
2026-04-17 07:44 5.38010 103.10299 29 ft 5 kts 280°
2026-04-17 07:44 5.38021 103.10272 30 ft 4 kts 296°
2026-04-17 07:45 5.38033 103.10252 31 ft 3 kts 304°
2026-04-17 07:45 5.38046 103.10236 31 ft 3 kts 309°
2026-04-17 07:45 5.38061 103.10216 32 ft 3 kts 303°
2026-04-17 07:45 5.38072 103.10187 32 ft 6 kts 285°
2026-04-17 07:46 5.38062 103.10137 32 ft 9 kts 239°
2026-04-17 07:46 5.38012 103.10083 32 ft 12 kts 222°
2026-04-17 07:46 5.37944 103.10016 32 ft 15 kts 225°
2026-04-17 07:46 5.37859 103.09929 32 ft 19 kts 225°
2026-04-17 07:47 5.37758 103.09831 32 ft 22 kts 224°
2026-04-17 07:47 5.37641 103.09717 32 ft 25 kts 224°
2026-04-17 07:47 5.37513 103.09590 32 ft 27 kts 224°
2026-04-17 07:47 5.37374 103.09453 32 ft 29 kts 225°
2026-04-17 07:48 5.37226 103.09310 32 ft 28 kts 224°
2026-04-17 07:48 5.37128 103.09213 32 ft 20 kts 224°
2026-04-17 07:48 5.37017 103.09159 32 ft 17 kts 207°
2026-04-17 07:48 5.36940 103.09092 32 ft 9 kts 252°
2026-04-17 07:49 5.36949 103.09071 32 ft 1 kts 315°
2026-04-17 07:49 5.36956 103.09070 32 ft 1 kts 341°
2026-04-17 07:49 5.36960 103.09071 32 ft 0 kts 358°
2026-04-17 07:49 5.36963 103.09072 32 ft 0 kts
2026-04-17 07:50 5.36965 103.09074 32 ft 1 kts 24°
2026-04-17 07:50 5.36985 103.09085 32 ft 5 kts 31°
2026-04-17 07:50 5.37024 103.09117 32 ft 10 kts 43°
2026-04-17 07:50 5.37222 103.09308 32 ft 72 kts 44°
2026-04-17 07:51 5.37728 103.09804 32 ft 128 kts 44°
2026-04-17 07:51 5.38470 103.10534 209 ft 161 kts 42°
2026-04-17 07:51 5.39508 103.10918 838 ft 166 kts 353°
2026-04-17 07:51 5.40478 103.10299 1363 ft 180 kts 304°
2026-04-17 07:52 5.40705 103.08993 1605 ft 211 kts 254°
2026-04-17 07:52 5.39855 103.07741 2005 ft 236 kts 215°
2026-04-17 07:52 5.38423 103.06806 2415 ft 253 kts 217°
2026-04-17 07:52 5.37117 103.05583 3114 ft 260 kts 227°
2026-04-17 07:53 5.35999 103.04146 3828 ft 264 kts 235°
2026-04-17 07:53 5.35026 103.02563 4600 ft 268 kts 240°
2026-04-17 07:53 5.34145 103.00890 5318 ft 273 kts 243°
2026-04-17 07:53 5.33320 102.99175 6006 ft 280 kts 244°
2026-04-17 07:54 5.32500 102.97381 6701 ft 286 kts 245°
2026-04-17 07:54 5.31683 102.95547 7431 ft 289 kts 246°
2026-04-17 07:54 5.30862 102.93676 8191 ft 294 kts 246°
2026-04-17 07:54 5.30034 102.91777 8968 ft 299 kts 246°
2026-04-17 07:55 5.29195 102.89845 9726 ft 306 kts 246°
2026-04-17 07:55 5.28339 102.87872 10223 ft 320 kts 246°
2026-04-17 07:55 5.27424 102.85762 10519 ft 340 kts 246°
2026-04-17 07:55 5.26464 102.83545 10969 ft 352 kts 246°
2026-04-17 07:56 5.25474 102.81259 11547 ft 358 kts 246°
2026-04-17 07:56 5.24474 102.78953 12212 ft 362 kts 246°
2026-04-17 07:56 5.23467 102.76629 12955 ft 363 kts 246°
2026-04-17 07:56 5.22458 102.74299 13630 ft 366 kts 246°
2026-04-17 07:57 5.21437 102.71942 14197 ft 370 kts 246°
2026-04-17 07:57 5.20280 102.69630 14715 ft 374 kts 233°
2026-04-17 07:57 5.18401 102.67840 15310 ft 374 kts 213°
2026-04-17 07:57 5.16128 102.66558 15867 ft 377 kts 205°
2026-04-17 07:58 5.13715 102.65500 16417 ft 380 kts 202°
2026-04-17 07:58 5.11265 102.64489 16929 ft 383 kts 202°
2026-04-17 07:58 5.08806 102.63428 17457 ft 386 kts 204°
2026-04-17 07:58 5.06357 102.62293 17939 ft 389 kts 205°
2026-04-17 07:59 5.03919 102.61093 18392 ft 392 kts 206°
2026-04-17 07:59 5.01482 102.59843 18817 ft 395 kts 207°
2026-04-17 07:59 4.99067 102.58576 19222 ft 398 kts 207°
2026-04-17 07:59 4.96609 102.57275 19670 ft 401 kts 207°
2026-04-17 08:00 4.94134 102.55963 20075 ft 403 kts 207°
2026-04-17 08:00 4.91640 102.54648 20489 ft 405 kts 207°
2026-04-17 08:00 4.89135 102.53332 20900 ft 408 kts 207°
2026-04-17 08:00 4.86604 102.52004 21301 ft 411 kts 207°
2026-04-17 08:01 4.84055 102.50668 21704 ft 413 kts 207°
2026-04-17 08:01 4.81499 102.49330 22114 ft 416 kts 207°
2026-04-17 08:01 4.78952 102.47996 22485 ft 418 kts 207°
2026-04-17 08:01 4.76362 102.46641 22872 ft 421 kts 207°
2026-04-17 08:02 4.73753 102.45275 23258 ft 424 kts 207°
2026-04-17 08:02 4.71128 102.43902 23580 ft 426 kts 207°
2026-04-17 08:02 4.68496 102.42525 23514 ft 427 kts 207°
2026-04-17 08:02 4.66748 102.41610 23372 ft 426 kts 207°
2026-04-17 08:03 4.63235 102.39772 23022 ft 424 kts 207°
2026-04-17 08:03 4.61507 102.38868 22850 ft 422 kts 207°
2026-04-17 08:03 4.58912 102.37510 22597 ft 419 kts 207°
2026-04-17 08:03 4.56324 102.36157 22345 ft 418 kts 207°
2026-04-17 08:04 4.53751 102.34811 22095 ft 416 kts 207°
2026-04-17 08:04 4.51185 102.33469 21882 ft 414 kts 207°
2026-04-17 08:04 4.48632 102.32135 21833 ft 414 kts 207°
2026-04-17 08:04 4.46109 102.30815 21821 ft 413 kts 207°
2026-04-17 08:05 4.43551 102.29478 21822 ft 413 kts 207°
2026-04-17 08:05 4.41000 102.28144 21821 ft 413 kts 207°
2026-04-17 08:05 4.38449 102.26811 21825 ft 413 kts 207°
2026-04-17 08:05 4.35897 102.25477 21822 ft 413 kts 207°
2026-04-17 08:06 4.33757 102.24359 21826 ft 413 kts 207°
2026-04-17 08:06 4.31209 102.23027 21823 ft 413 kts 207°
2026-04-17 08:06 4.28658 102.21694 21824 ft 413 kts 207°
2026-04-17 08:06 4.26142 102.20379 21823 ft 413 kts 207°
2026-04-17 08:07 4.23592 102.19047 21825 ft 413 kts 207°
2026-04-17 08:07 4.21040 102.17714 21824 ft 413 kts 207°
2026-04-17 08:07 4.18484 102.16379 21823 ft 413 kts 207°
2026-04-17 08:07 4.15928 102.15043 21827 ft 413 kts 207°
2026-04-17 08:08 4.13383 102.13714 21825 ft 413 kts 207°
2026-04-17 08:08 4.10831 102.12382 21825 ft 413 kts 207°
2026-04-17 08:08 4.08325 102.11073 21825 ft 413 kts 207°
2026-04-17 08:08 4.05777 102.09742 21828 ft 413 kts 207°
2026-04-17 08:09 4.03229 102.08412 21825 ft 413 kts 207°
2026-04-17 08:09 4.00677 102.07079 21833 ft 413 kts 207°
2026-04-17 08:09 3.98128 102.05748 21833 ft 413 kts 207°
2026-04-17 08:09 3.95578 102.04416 21827 ft 413 kts 207°
2026-04-17 08:10 3.93023 102.03083 21839 ft 413 kts 207°
2026-04-17 08:10 3.90474 102.01753 21660 ft 412 kts 207°
2026-04-17 08:10 3.87930 102.00425 21409 ft 410 kts 207°
2026-04-17 08:10 3.85435 101.99123 21164 ft 409 kts 207°
2026-04-17 08:11 3.82913 101.97807 20932 ft 408 kts 207°
2026-04-17 08:11 3.80403 101.96497 20690 ft 406 kts 207°
2026-04-17 08:11 3.77899 101.95190 20449 ft 404 kts 206°
2026-04-17 08:11 3.75402 101.93887 20220 ft 403 kts 207°
2026-04-17 08:12 3.72920 101.92592 19996 ft 402 kts 206°
2026-04-17 08:12 3.70441 101.91299 19761 ft 400 kts 206°
2026-04-17 08:12 3.67905 101.90159 19525 ft 398 kts 197°
2026-04-17 08:12 3.65236 101.89618 19311 ft 396 kts 184°
2026-04-17 08:13 3.62495 101.89457 19087 ft 394 kts 181°
2026-04-17 08:13 3.59757 101.89371 18864 ft 392 kts 181°
2026-04-17 08:13 3.57027 101.89291 18642 ft 390 kts 181°
2026-04-17 08:14 3.51613 101.89122 18074 ft 388 kts 181°
2026-04-17 08:14 3.48908 101.89032 17378 ft 389 kts 181°
2026-04-17 08:14 3.46226 101.88940 16910 ft 383 kts 181°
2026-04-17 08:14 3.43570 101.88850 16392 ft 379 kts 181°
2026-04-17 08:15 3.40946 101.88760 15861 ft 376 kts 181°
2026-04-17 08:15 3.38338 101.88670 15312 ft 373 kts 180°
2026-04-17 08:15 3.35748 101.88582 14782 ft 371 kts 181°
2026-04-17 08:15 3.33209 101.88495 14265 ft 368 kts 181°
2026-04-17 08:16 3.30656 101.88406 13783 ft 365 kts 180°
2026-04-17 08:16 3.28132 101.88319 13223 ft 362 kts 181°
2026-04-17 08:16 3.25622 101.88233 12706 ft 359 kts 180°
2026-04-17 08:16 3.23128 101.88147 12145 ft 356 kts 181°
2026-04-17 08:17 3.20738 101.88065 12121 ft 354 kts 181°
2026-04-17 08:17 3.18275 101.87982 10968 ft 353 kts 181°
2026-04-17 08:17 3.15823 101.87899 10436 ft 350 kts 181°
2026-04-17 08:17 3.13425 101.87816 10107 ft 346 kts 181°
2026-04-17 08:18 3.11022 101.87732 10025 ft 345 kts 181°
2026-04-17 08:18 3.08619 101.87649 10015 ft 345 kts 181°
2026-04-17 08:18 3.06216 101.87566 10016 ft 343 kts 181°
2026-04-17 08:18 3.03839 101.87484 10019 ft 342 kts 181°
2026-04-17 08:19 3.01455 101.87402 10008 ft 341 kts 181°
2026-04-17 08:19 2.99133 101.87322 10026 ft 332 kts 181°
2026-04-17 08:19 2.96788 101.87242 10000 ft 339 kts 181°
2026-04-17 08:19 2.94522 101.87163 10007 ft 323 kts 181°
2026-04-17 08:20 2.92213 101.87084 10003 ft 339 kts 181°
2026-04-17 08:20 2.89898 101.87005 10002 ft 322 kts 181°
2026-04-17 08:20 2.87666 101.86931 10004 ft 330 kts 180°
2026-04-17 08:20 2.85339 101.87097 9876 ft 332 kts 168°
2026-04-17 08:21 2.83142 101.87664 9665 ft 321 kts 163°
2026-04-17 08:21 2.81068 101.88299 9395 ft 311 kts 162°
2026-04-17 08:21 2.79008 101.88942 9143 ft 302 kts 162°
2026-04-17 08:21 2.77062 101.89547 8985 ft 293 kts 162°
2026-04-17 08:22 2.75126 101.90144 8870 ft 290 kts 162°
2026-04-17 08:22 2.73191 101.90739 8747 ft 290 kts 162°
2026-04-17 08:22 2.71263 101.91330 8629 ft 289 kts 162°
2026-04-17 08:22 2.69335 101.91920 8506 ft 289 kts 162°
2026-04-17 08:23 2.67416 101.92507 8385 ft 288 kts 162°
2026-04-17 08:23 2.65495 101.93094 8174 ft 288 kts 162°
2026-04-17 08:23 2.63589 101.93676 7972 ft 283 kts 162°
2026-04-17 08:23 2.61741 101.94240 7852 ft 272 kts 162°
2026-04-17 08:24 2.59963 101.94782 7736 ft 262 kts 162°
2026-04-17 08:24 2.58253 101.95303 7623 ft 252 kts 162°
2026-04-17 08:24 2.56603 101.95807 7510 ft 244 kts 162°
2026-04-17 08:24 2.55009 101.96209 7396 ft 236 kts 171°
2026-04-17 08:25 2.53393 101.96114 7286 ft 231 kts 194°
2026-04-17 08:25 2.51991 101.95366 7151 ft 230 kts 221°
2026-04-17 08:25 2.50947 101.94154 7049 ft 231 kts 233°
2026-04-17 08:25 2.50038 101.92821 6945 ft 232 kts 236°
2026-04-17 08:26 2.49151 101.91474 6818 ft 232 kts 235°
2026-04-17 08:26 2.48185 101.90179 6615 ft 231 kts 218°
2026-04-17 08:26 2.46772 101.89579 6375 ft 227 kts 184°
2026-04-17 08:26 2.45233 101.89762 6195 ft 218 kts 165°
2026-04-17 08:27 2.43771 101.89772 6076 ft 209 kts 198°
2026-04-17 08:27 2.42704 101.88832 5973 ft 211 kts 242°
2026-04-17 08:27 2.42572 101.87390 5857 ft 214 kts 286°
2026-04-17 08:27 2.43455 101.86243 5751 ft 211 kts 331°
2026-04-17 08:28 2.44851 101.86023 5648 ft 206 kts 15°
2026-04-17 08:28 2.46050 101.86750 5563 ft 202 kts 44°
2026-04-17 08:28 2.46962 101.87820 5461 ft 203 kts 55°
2026-04-17 08:28 2.47966 101.88775 5322 ft 206 kts 27°
2026-04-17 08:29 2.49376 101.88900 5109 ft 208 kts 352°
2026-04-17 08:29 2.50740 101.88414 4866 ft 210 kts 334°
2026-04-17 08:29 2.51982 101.87642 4648 ft 210 kts 327°
2026-04-17 08:29 2.53182 101.86825 4499 ft 206 kts 327°
2026-04-17 08:30 2.54294 101.86067 4477 ft 182 kts 327°
2026-04-17 08:30 2.55313 101.85373 4420 ft 173 kts 327°
2026-04-17 08:30 2.56270 101.84729 4267 ft 158 kts 328°
2026-04-17 08:30 2.57146 101.84141 4040 ft 148 kts 328°
2026-04-17 08:31 2.57993 101.83571 3832 ft 147 kts 328°
2026-04-17 08:31 2.58840 101.83000 3616 ft 147 kts 328°
2026-04-17 08:31 2.59689 101.82427 3419 ft 147 kts 328°
2026-04-17 08:31 2.60535 101.81857 3238 ft 147 kts 328°
2026-04-17 08:32 2.61379 101.81289 3042 ft 146 kts 328°
2026-04-17 08:32 2.62206 101.80733 2874 ft 144 kts 327°
2026-04-17 08:32 2.63037 101.80171 2687 ft 144 kts 327°
2026-04-17 08:32 2.63866 101.79613 2516 ft 143 kts 327°
2026-04-17 08:33 2.64690 101.79057 2325 ft 143 kts 326°
2026-04-17 08:33 2.65512 101.78503 2141 ft 142 kts 326°
2026-04-17 08:33 2.66331 101.77951 1956 ft 141 kts 326°
2026-04-17 08:33 2.67145 101.77403 1765 ft 141 kts 326°
2026-04-17 08:34 2.67957 101.76855 1596 ft 141 kts 326°
2026-04-17 08:34 2.68769 101.76308 1406 ft 141 kts 326°
2026-04-17 08:34 2.69577 101.75763 1240 ft 140 kts 326°
2026-04-17 08:34 2.70381 101.75221 1055 ft 138 kts 326°
2026-04-17 08:35 2.71177 101.74685 907 ft 137 kts 326°
2026-04-17 08:35 2.71965 101.74154 751 ft 136 kts 326°
2026-04-17 08:35 2.72749 101.73625 605 ft 136 kts 326°
2026-04-17 08:35 2.73527 101.73102 414 ft 136 kts 326°
2026-04-17 08:36 2.74311 101.72571 261 ft 138 kts 324°
2026-04-17 08:36 2.75073 101.72055 97 ft 126 kts 326°
2026-04-17 08:36 2.75695 101.71632 69 ft 82 kts 326°
2026-04-17 08:36 2.76045 101.71398 66 ft 50 kts 326°
2026-04-17 08:37 2.76303 101.71225 65 ft 38 kts 327°
2026-04-17 08:37 2.76501 101.71055 65 ft 36 kts 310°
2026-04-17 08:37 2.76579 101.70909 67 ft 12 kts 279°
2026-04-17 08:37 2.76548 101.70861 64 ft 7 kts 205°
2026-04-17 08:38 2.76517 101.70861 65 ft 4 kts 165°
2026-04-17 08:38 2.76491 101.70872 61 ft 5 kts 154°
2026-04-17 08:38 2.76457 101.70892 60 ft 7 kts 148°
2026-04-17 08:38 2.76404 101.70925 61 ft 11 kts 147°
2026-04-17 08:39 2.76325 101.70977 60 ft 16 kts 148°
2026-04-17 08:39 2.76218 101.71023 62 ft 18 kts 164°
2026-04-17 08:39 2.76094 101.71048 65 ft 18 kts 166°
2026-04-17 08:39 2.75983 101.71096 63 ft 17 kts 147°
2026-04-17 08:40 2.75901 101.71146 65 ft 10 kts 161°
2026-04-17 08:40 2.75852 101.71138 67 ft 5 kts 211°
2026-04-17 08:40 2.75826 101.71116 68 ft 5 kts 228°
2026-04-17 08:40 2.75797 101.71079 69 ft 9 kts 233°
2026-04-17 08:41 2.75756 101.71019 66 ft 12 kts 237°
2026-04-17 08:41 2.75702 101.70937 68 ft 16 kts 236°
2026-04-17 08:41 2.75639 101.70843 74 ft 17 kts 232°
2026-04-17 08:41 2.75577 101.70798 66 ft 7 kts 218°
2026-04-17 08:42 2.75541 101.70781 70 ft 4 kts 179°
2026-04-17 08:42 2.75517 101.70788 71 ft 4 kts 160°
2026-04-17 08:42 2.75516 101.70788 71 ft 0 kts 160°
2026-04-17 08:42 2.75514 101.70789 71 ft 0 kts 158°
2026-04-17 08:43 2.75511 101.70790 71 ft 0 kts 156°
2026-04-17 08:43 2.75510 101.70791 71 ft 0 kts 156°